User: anonymous   Login
Location: Dyersburg
(36.0438°N, 89.3789°W)
Time: 12:12:32
(UTC+00:00)
Language:

Vanguard 2 - Orbit

View from above orbital plane
View from above orbital plane
View from above satellite
View from above satellite

Ground track
Ground track

The orbit data is extracted from the following two-line orbital elements,

1    11U 59001A   20048.12470221  .00000267  00000-0  12403-3 0  9998
2    11  32.8774 150.9391 1469348 286.5320  57.9240 11.85670822602313
Epoch (UTC): 17 February 2020 02:59:34
Eccentricity: 0.1469348
inclination: 32.8774°
perigee height: 552 km
apogee height: 2939 km
right ascension of ascending node: 150.9391°
argument of perigee: 286.5320°
revolutions per day: 11.85670822
mean anomaly at epoch: 57.9240°
orbit number at epoch: 60231

The dashed part of the orbit path shows where the satellite is in the earth's shadow,  

DLR